AISSAT 2 (40075 NORAD) Tracking and Keplerian Element Data

This shows tracking and keplerian element data for the satellite.

Feedback or suggestion? Click here.




ElementValue
Catalog40075
NameAISSAT 2
Epoch Orbit57243
Epoch Day34.78808682
Epoch Year2025
RAAN331.9407
Inclination98.3466
Eccentricity0.000667
Argument of Perigee88.5927
Mean Anonmoly271.6053
Mean Motion14.89892046
Decay Rate5.233E-05
L11 40075U 14037G 25034.78808682 .00005233 00000+0 55019-3 0 9997
L22 40075 98.3466 331.9407 0006670 88.5927 271.6053 14.89892046572435



Live tracking and technical data element details for AISSAT 2 (NORAD 40075). AISSAT 2 can be tracked NOW for your location showing map with azimuth and elevation plus other details from your city location.







IsCatalogInMostPopularTable: catalog: 40075, numindb: 25289
Update: records affected: 1



GetName: 40075 AISSAT 2

Hit Count: updated at: Thu, 21 May 2026 11:29:35 GMT